Location: Newark
(23.1300°N, 73.6109°E)
Time: 22:57:58
(UTC+00:00)

NOAA 18 - Pass Details

Date: 23 June 2021
Orbit: 840 x 861 km, 99.0° (Epoch: 27 July)

Event Time Altitude Azimuth Distance (km) Brightness Sun altitude
Exits shadow 16:25:26 56° 36° (NE) 1,013 5.5 -29.0°
Drops below altitude 10° 16:30:06 10° 356° (N) 2,493 8.2 -29.7°
Sets 16:32:30 0° 353° (N) 3,433 9.1 -30.1°
